Time,TemperatureF,DewpointF,PressureIn,WindDirection,WindDirectionDegrees,WindSpeedMPH,WindSpeedGustMPH,Humidity,HourlyPrecipIn,Conditions,Clouds,dailyrainin,SolarRadiationWatts/m^2,SoftwareType,DateUTC
2013-04-24 00:01:00,53.2,46.5,29.90,NNE,20,0.0,0.0,78,0.00,CLR,,0.00,0.0,WeatherDisplay:10.37,2013-04-24 07:01:00,
2013-04-24 00:06:00,53.1,46.8,29.90,NNE,20,0.0,0.0,79,0.00,CLR,,0.00,0.0,WeatherDisplay:10.37,2013-04-24 07:06:00,
2013-04-24 00:11:00,52.9,46.6,29.90,NNE,18,0.0,0.0,79,0.00,CLR,,0.00,0.0,WeatherDisplay:10.37,2013-04-24 07:11:00,
2013-04-24 00:16:00,52.8,46.5,29.90,NNE,20,0.0,0.0,79,0.00,CLR,,0.00,0.0,WeatherDisplay:10.37,2013-04-24 07:16:00,
2013-04-24 00:21:00,52.6,46.6,29.90,NNE,20,0.0,0.0,80,0.00,CLR,,0.00,0.0,WeatherDisplay:10.37,2013-04-24 07:21:00,
2013-04-24 00:26:00,52.5,46.5,29.89,NNE,20,0.0,0.0,80,0.00,CLR,,0.00,0.0,WeatherDisplay:10.37,2013-04-24 07:26:00,
2013-04-24 00:31:00,52.3,46.3,29.89,NNE,20,0.0,0.0,80,0.00,CLR,,0.00,0.0,WeatherDisplay:10.37,2013-04-24 07:31:00,
2013-04-24 00:36:00,52.2,46.2,29.89,NNE,20,0.0,0.0,80,0.00,CLR,,0.00,0.0,WeatherDisplay:10.37,2013-04-24 07:36:00,
2013-04-24 00:41:00,52.0,46.0,29.89,NNE,20,0.0,0.0,80,0.00,CLR,,0.00,0.0,WeatherDisplay:10.37,2013-04-24 07:41:00,
2013-04-24 00:46:00,51.9,45.9,29.89,NNE,20,0.0,0.0,80,0.00,CLR,,0.00,0.0,WeatherDisplay:10.37,2013-04-24 07:46:00,
2013-04-24 00:51:00,51.7,46.1,29.89,NNE,20,0.0,0.0,81,0.00,CLR,,0.00,0.0,WeatherDisplay:10.37,2013-04-24 07:51:00,
2013-04-24 00:56:00,51.6,46.0,29.88,NNE,20,0.0,0.0,81,0.00,CLR,,0.00,0.0,WeatherDisplay:10.37,2013-04-24 07:56:00,
2013-04-24 01:01:00,51.4,45.8,29.88,NNE,18,0.0,0.0,81,0.00,CLR,,0.00,0.0,WeatherDisplay:10.37,2013-04-24 08:01:00,
2013-04-24 01:06:00,51.3,45.7,29.88,NNE,20,0.0,0.0,81,0.00,CLR,,0.00,0.0,WeatherDisplay:10.37,2013-04-24 08:06:00,
2013-04-24 01:11:00,51.1,45.5,29.88,NNE,20,0.0,0.0,81,0.00,CLR,,0.00,0.0,WeatherDisplay:10.37,2013-04-24 08:11:00,
2013-04-24 01:16:00,51.0,45.4,29.88,NNE,20,0.0,0.0,81,0.00,CLR,,0.00,0.0,WeatherDisplay:10.37,2013-04-24 08:16:00,
2013-04-24 01:21:00,50.7,45.1,29.88,NNE,20,0.0,0.0,81,0.00,CLR,,0.00,0.0,WeatherDisplay:10.37,2013-04-24 08:21:00,
2013-04-24 01:26:00,50.5,45.2,29.88,NNE,20,0.0,0.0,82,0.00,CLR,,0.00,0.0,WeatherDisplay:10.37,2013-04-24 08:26:00,
2013-04-24 01:31:00,50.4,45.1,29.88,NNE,20,0.0,0.0,82,0.00,CLR,,0.00,0.0,WeatherDisplay:10.37,2013-04-24 08:31:00,
2013-04-24 01:36:00,50.4,45.1,29.88,NNE,20,0.0,0.0,82,0.00,CLR,,0.00,0.0,WeatherDisplay:10.37,2013-04-24 08:36:00,
2013-04-24 01:41:00,50.2,45.2,29.87,NNE,20,0.0,0.0,83,0.00,CLR,,0.00,0.0,WeatherDisplay:10.37,2013-04-24 08:41:00,
2013-04-24 01:46:00,50.1,45.1,29.87,NNE,20,0.0,0.0,83,0.00,CLR,,0.00,0.0,WeatherDisplay:10.37,2013-04-24 08:46:00,
2013-04-24 01:51:00,49.9,44.9,29.87,NNE,20,0.0,0.0,83,0.00,CLR,,0.00,0.0,WeatherDisplay:10.37,2013-04-24 08:51:00,
2013-04-24 01:56:00,49.8,44.8,29.87,NNE,20,0.0,0.0,83,0.00,CLR,,0.00,0.0,WeatherDisplay:10.37,2013-04-24 08:56:00,
2013-04-24 02:01:00,49.6,44.6,29.86,NNE,20,0.0,0.0,83,0.00,CLR,,0.00,0.0,WeatherDisplay:10.37,2013-04-24 09:01:00,
2013-04-24 02:06:00,49.5,44.6,29.86,NNE,20,0.0,0.0,83,0.00,CLR,,0.00,0.0,WeatherDisplay:10.37,2013-04-24 09:06:00,
2013-04-24 02:11:00,49.4,44.5,29.86,NNE,20,0.0,0.0,83,0.00,CLR,,0.00,0.0,WeatherDisplay:10.37,2013-04-24 09:11:00,
2013-04-24 02:16:00,49.4,44.5,29.86,NNE,20,0.0,0.0,83,0.00,CLR,,0.00,0.0,WeatherDisplay:10.37,2013-04-24 09:16:00,
2013-04-24 02:21:00,49.2,44.6,29.86,NNE,20,0.0,0.0,84,0.00,CLR,,0.00,0.0,WeatherDisplay:10.37,2013-04-24 09:21:00,
2013-04-24 02:26:00,49.1,44.5,29.86,NNE,20,0.0,0.0,84,0.00,CLR,,0.00,0.0,WeatherDisplay:10.37,2013-04-24 09:26:00,
2013-04-24 02:31:00,48.9,44.3,29.86,NNE,20,0.0,0.0,84,0.00,CLR,,0.00,0.0,WeatherDisplay:10.37,2013-04-24 09:31:00,
2013-04-24 02:36:00,48.8,44.2,29.86,NNE,20,0.0,0.0,84,0.00,CLR,,0.00,0.0,WeatherDisplay:10.37,2013-04-24 09:36:00,
2013-04-24 02:41:00,48.8,44.2,29.86,NNE,20,0.0,0.0,84,0.00,CLR,,0.00,0.0,WeatherDisplay:10.37,2013-04-24 09:41:00,
2013-04-24 02:46:00,48.6,44.0,29.86,NNE,20,0.0,0.0,84,0.00,CLR,,0.00,0.0,WeatherDisplay:10.37,2013-04-24 09:46:00,
2013-04-24 02:51:00,48.5,44.2,29.86,NNE,20,0.0,0.0,85,0.00,CLR,,0.00,0.0,WeatherDisplay:10.37,2013-04-24 09:51:00,
2013-04-24 02:56:00,48.3,44.0,29.86,NNE,20,0.0,0.0,85,0.00,CLR,,0.00,0.0,WeatherDisplay:10.37,2013-04-24 09:56:00,
2013-04-24 03:01:00,48.2,43.9,29.86,NNE,20,0.0,0.0,85,0.00,CLR,,0.00,0.0,WeatherDisplay:10.37,2013-04-24 10:01:00,
2013-04-24 03:06:00,48.2,43.9,29.86,NNE,20,0.0,0.0,85,0.00,CLR,,0.00,0.0,WeatherDisplay:10.37,2013-04-24 10:06:00,
2013-04-24 03:11:00,48.0,43.7,29.85,NNE,20,0.0,0.0,85,0.00,CLR,,0.00,0.0,WeatherDisplay:10.37,2013-04-24 10:11:00,
2013-04-24 03:16:00,47.9,43.6,29.85,NNE,20,0.0,0.0,85,0.00,CLR,,0.00,0.0,WeatherDisplay:10.37,2013-04-24 10:16:00,
2013-04-24 03:21:00,47.9,43.6,29.85,NNE,20,0.0,0.0,85,0.00,CLR,,0.00,0.0,WeatherDisplay:10.37,2013-04-24 10:21:00,
2013-04-24 03:26:00,47.9,43.6,29.85,NNE,20,0.0,0.0,85,0.00,CLR,,0.00,0.0,WeatherDisplay:10.37,2013-04-24 10:26:00,
2013-04-24 03:31:00,47.7,43.7,29.85,NNE,18,0.0,0.0,86,0.00,CLR,,0.00,0.0,WeatherDisplay:10.37,2013-04-24 10:31:00,
2013-04-24 03:36:00,47.7,43.7,29.84,NNE,20,0.0,0.0,86,0.00,CLR,,0.00,0.0,WeatherDisplay:10.37,2013-04-24 10:36:00,
2013-04-24 03:41:00,47.6,43.6,29.84,NNE,20,0.0,0.0,86,0.00,CLR,,0.00,0.0,WeatherDisplay:10.37,2013-04-24 10:41:00,
2013-04-24 03:46:00,47.6,43.6,29.84,NNE,20,0.0,0.0,86,0.00,CLR,,0.00,0.0,WeatherDisplay:10.37,2013-04-24 10:46:00,
2013-04-24 03:51:00,47.4,43.4,29.84,NNE,20,0.0,0.0,86,0.00,CLR,,0.00,0.0,WeatherDisplay:10.37,2013-04-24 10:51:00,
2013-04-24 03:56:00,47.4,43.4,29.84,NNE,20,0.0,0.0,86,0.00,CLR,,0.00,0.0,WeatherDisplay:10.37,2013-04-24 10:56:00,
2013-04-24 04:01:00,47.3,43.3,29.84,NNE,20,0.0,0.0,86,0.00,CLR,,0.00,0.0,WeatherDisplay:10.37,2013-04-24 11:01:00,
2013-04-24 04:06:00,47.3,43.3,29.84,NNE,20,0.0,0.0,86,0.00,CLR,,0.00,0.0,WeatherDisplay:10.37,2013-04-24 11:06:00,
2013-04-24 04:11:00,47.1,42.8,29.84,NNE,20,0.0,0.0,85,0.00,CLR,,0.00,0.0,WeatherDisplay:10.37,2013-04-24 11:11:00,
2013-04-24 04:16:00,47.0,42.7,29.84,NNE,20,0.0,0.0,85,0.00,CLR,,0.00,0.0,WeatherDisplay:10.37,2013-04-24 11:16:00,
2013-04-24 04:21:00,46.8,42.8,29.85,NNE,18,0.0,0.0,86,0.00,CLR,,0.00,0.0,WeatherDisplay:10.37,2013-04-24 11:21:00,
2013-04-24 04:26:00,46.7,42.7,29.85,NNE,20,0.0,0.0,86,0.00,CLR,,0.00,0.0,WeatherDisplay:10.37,2013-04-24 11:26:00,
2013-04-24 04:31:00,46.5,42.5,29.85,NNE,20,0.0,0.0,86,0.00,CLR,,0.00,0.0,WeatherDisplay:10.37,2013-04-24 11:31:00,
2013-04-24 04:36:00,46.5,42.5,29.84,NNE,20,0.0,0.0,86,0.00,CLR,,0.00,0.0,WeatherDisplay:10.37,2013-04-24 11:36:00,
2013-04-24 04:41:00,46.4,42.4,29.84,NNE,20,0.0,0.0,86,0.00,CLR,,0.00,0.0,WeatherDisplay:10.37,2013-04-24 11:41:00,
2013-04-24 04:46:00,46.4,42.4,29.84,NNE,18,0.0,0.0,86,0.00,CLR,,0.00,0.0,WeatherDisplay:10.37,2013-04-24 11:46:00,
2013-04-24 04:51:00,46.2,42.2,29.84,NNE,20,0.0,1.2,86,0.00,CLR,,0.00,0.0,WeatherDisplay:10.37,2013-04-24 11:51:00,
2013-04-24 04:56:00,46.1,42.1,29.83,NNE,20,0.0,0.0,86,0.00,CLR,,0.00,0.0,WeatherDisplay:10.37,2013-04-24 11:56:00,
2013-04-24 05:01:00,46.0,42.0,29.83,NNE,20,0.0,0.0,86,0.00,CLR,,0.00,0.0,WeatherDisplay:10.37,2013-04-24 12:01:00,
2013-04-24 05:06:00,45.8,41.9,29.84,NNE,20,0.0,0.0,86,0.00,CLR,,0.00,0.0,WeatherDisplay:10.37,2013-04-24 12:06:00,
2013-04-24 05:11:00,45.7,41.8,29.83,NNE,20,0.0,0.0,86,0.00,CLR,,0.00,0.0,WeatherDisplay:10.37,2013-04-24 12:11:00,
2013-04-24 05:16:00,45.5,41.6,29.84,NNE,20,0.0,0.0,86,0.00,CLR,,0.00,0.0,WeatherDisplay:10.37,2013-04-24 12:16:00,
2013-04-24 05:21:00,45.4,41.2,29.84,NNE,20,0.0,0.0,85,0.00,CLR,,0.00,0.0,WeatherDisplay:10.37,2013-04-24 12:21:00,
2013-04-24 05:26:00,45.2,41.0,29.84,NNE,20,0.0,0.0,85,0.00,CLR,,0.00,0.0,WeatherDisplay:10.37,2013-04-24 12:26:00,
2013-04-24 05:31:00,45.1,41.2,29.84,NNE,20,0.0,0.0,86,0.00,CLR,,0.00,0.0,WeatherDisplay:10.37,2013-04-24 12:31:00,
2013-04-24 05:36:00,44.9,41.0,29.84,NNE,20,0.0,0.0,86,0.00,CLR,,0.00,0.0,WeatherDisplay:10.37,2013-04-24 12:36:00,
2013-04-24 05:41:00,44.9,41.0,29.84,NNE,20,0.0,0.0,86,0.00,CLR,,0.00,0.0,WeatherDisplay:10.37,2013-04-24 12:41:00,
2013-04-24 05:46:00,44.8,40.9,29.85,NNE,20,0.0,0.0,86,0.00,CLR,,0.00,0.0,WeatherDisplay:10.37,2013-04-24 12:46:00,
2013-04-24 05:51:00,44.8,40.9,29.85,NNE,20,0.0,0.0,86,0.00,CLR,,0.00,0.0,WeatherDisplay:10.37,2013-04-24 12:51:00,
2013-04-24 05:56:00,44.6,40.7,29.85,NNE,20,0.0,0.0,86,0.00,CLR,,0.00,0.0,WeatherDisplay:10.37,2013-04-24 12:56:00,
2013-04-24 06:01:00,44.6,40.7,29.85,NNE,18,0.0,0.0,86,0.00,CLR,,0.00,0.0,WeatherDisplay:10.37,2013-04-24 13:01:00,
2013-04-24 06:06:00,44.8,40.9,29.85,NNE,20,0.0,0.0,86,0.00,CLR,,0.00,0.0,WeatherDisplay:10.37,2013-04-24 13:06:00,
2013-04-24 06:11:00,44.9,41.3,29.85,NNE,20,0.0,0.0,87,0.00,CLR,,0.00,0.0,WeatherDisplay:10.37,2013-04-24 13:11:00,
2013-04-24 06:16:00,45.1,41.5,29.85,NNE,20,0.0,0.0,87,0.00,CLR,,0.00,0.0,WeatherDisplay:10.37,2013-04-24 13:16:00,
2013-04-24 06:21:00,45.4,41.8,29.85,NNE,20,0.0,0.0,87,0.00,CLR,,0.00,0.0,WeatherDisplay:10.37,2013-04-24 13:21:00,
2013-04-24 06:26:00,45.7,42.1,29.85,NNE,18,0.0,0.0,87,0.00,CLR,,0.00,0.0,WeatherDisplay:10.37,2013-04-24 13:26:00,
2013-04-24 06:31:00,46.0,42.6,29.85,NNE,20,0.0,0.0,88,0.00,CLR,,0.00,5.0,WeatherDisplay:10.37,2013-04-24 13:31:00,
2013-04-24 06:36:00,46.1,42.7,29.85,NNE,20,0.0,0.0,88,0.00,CLR,,0.00,7.0,WeatherDisplay:10.37,2013-04-24 13:36:00,
2013-04-24 06:41:00,46.4,43.0,29.85,NNE,20,0.0,0.0,88,0.00,CLR,,0.00,9.0,WeatherDisplay:10.37,2013-04-24 13:41:00,
2013-04-24 06:46:00,46.5,43.1,29.85,NNE,20,0.0,1.2,88,0.00,CLR,,0.00,14.0,WeatherDisplay:10.37,2013-04-24 13:46:00,
2013-04-24 06:51:00,46.7,43.3,29.85,NNE,18,0.0,0.0,88,0.00,CLR,,0.00,23.0,WeatherDisplay:10.37,2013-04-24 13:51:00,
2013-04-24 06:56:00,47.0,43.6,29.85,NNE,20,0.0,0.0,88,0.00,CLR,,0.00,33.0,WeatherDisplay:10.37,2013-04-24 13:56:00,
2013-04-24 07:01:00,47.3,43.9,29.86,SSW,200,0.6,3.5,88,0.00,BKN,,0.00,39.0,WeatherDisplay:10.37,2013-04-24 14:01:00,
2013-04-24 07:06:00,47.6,44.2,29.86,SSW,200,0.0,0.0,88,0.00,BKN,,0.00,44.0,WeatherDisplay:10.37,2013-04-24 14:06:00,
2013-04-24 07:11:00,47.9,44.5,29.86,SSW,200,0.0,0.0,88,0.00,BKN,,0.00,42.0,WeatherDisplay:10.37,2013-04-24 14:11:00,
2013-04-24 07:16:00,48.0,44.6,29.86,SSW,195,0.0,0.0,88,0.00,BKN,,0.00,56.0,WeatherDisplay:10.37,2013-04-24 14:16:00,
2013-04-24 07:21:00,48.3,44.9,29.86,SSW,200,0.0,0.0,88,0.00,BKN,,0.00,69.0,WeatherDisplay:10.37,2013-04-24 14:21:00,
2013-04-24 07:26:00,48.6,45.2,29.86,SSW,200,0.0,0.0,88,0.00,BKN,,0.00,70.0,WeatherDisplay:10.37,2013-04-24 14:26:00,
2013-04-24 07:31:00,49.1,45.7,29.87,SSW,200,0.0,0.0,88,0.00,BKN,,0.00,67.0,WeatherDisplay:10.37,2013-04-24 14:31:00,
2013-04-24 07:36:00,49.2,45.8,29.87,SSW,200,0.0,0.0,88,0.00,BKN,,0.00,95.0,WeatherDisplay:10.37,2013-04-24 14:36:00,
2013-04-24 07:41:00,49.6,46.2,29.87,SSW,200,0.0,0.0,88,0.00,BKN,,0.00,120.0,WeatherDisplay:10.37,2013-04-24 14:41:00,
2013-04-24 07:46:00,50.1,47.0,29.87,SW,227,0.1,1.2,89,0.00,OVC,,0.00,97.0,WeatherDisplay:10.37,2013-04-24 14:46:00,
2013-04-24 07:51:00,50.4,47.3,29.88,SW,227,0.1,0.0,89,0.00,OVC,,0.00,121.0,WeatherDisplay:10.37,2013-04-24 14:51:00,
2013-04-24 07:56:00,50.7,47.6,29.87,SW,227,0.0,0.0,89,0.00,OVC,,0.00,114.0,WeatherDisplay:10.37,2013-04-24 14:56:00,
2013-04-24 08:01:00,51.0,47.9,29.88,SW,227,0.0,1.2,89,0.00,OVC,,0.00,222.0,WeatherDisplay:10.37,2013-04-24 15:01:00,
2013-04-24 08:09:00,51.6,48.5,29.88,SW,227,0.0,0.0,89,0.00,OVC,,0.00,269.0,WeatherDisplay:10.37,2013-04-24 15:09:00,
2013-04-24 08:14:00,52.2,49.1,29.88,SW,227,0.0,0.0,89,0.00,OVC,,0.00,377.0,WeatherDisplay:10.37,2013-04-24 15:14:00,
2013-04-24 08:19:00,52.8,49.6,29.88,SW,227,0.0,1.2,89,0.00,OVC,,0.00,197.0,WeatherDisplay:10.37,2013-04-24 15:19:00,
2013-04-24 08:24:00,52.9,49.7,29.88,SW,227,0.0,0.0,89,0.00,OVC,,0.00,333.0,WeatherDisplay:10.37,2013-04-24 15:24:00,
2013-04-24 08:29:00,53.2,50.0,29.88,SW,227,0.0,0.0,89,0.00,OVC,,0.00,368.0,WeatherDisplay:10.37,2013-04-24 15:29:00,
2013-04-24 08:34:00,53.5,50.3,29.88,SW,227,0.0,0.0,89,0.00,OVC,,0.00,391.0,WeatherDisplay:10.37,2013-04-24 15:34:00,
2013-04-24 08:39:00,53.8,50.3,29.88,SW,227,0.0,0.0,88,0.00,OVC,,0.00,403.0,WeatherDisplay:10.37,2013-04-24 15:39:00,
2013-04-24 08:44:00,54.2,50.7,29.88,ESE,107,0.2,1.2,88,0.00,OVC,,0.00,417.0,WeatherDisplay:10.37,2013-04-24 15:44:00,
2013-04-24 08:49:00,54.7,50.9,29.88,ESE,104,0.6,3.5,87,0.00,OVC,,0.00,435.0,WeatherDisplay:10.37,2013-04-24 15:49:00,
2013-04-24 08:54:00,55.1,51.3,29.88,ESE,107,0.1,0.0,87,0.00,OVC,,0.00,443.0,WeatherDisplay:10.37,2013-04-24 15:54:00,
2013-04-24 08:59:00,55.4,51.0,29.88,East,93,0.2,3.5,85,0.00,OVC,,0.00,461.0,WeatherDisplay:10.37,2013-04-24 15:59:00,
2013-04-24 09:04:00,56.2,51.4,29.88,ESE,107,0.4,1.2,84,0.00,OVC,,0.00,477.0,WeatherDisplay:10.37,2013-04-24 16:04:00,
2013-04-24 09:09:00,56.7,51.3,29.88,ESE,107,0.0,1.2,82,0.00,OVC,,0.00,487.0,WeatherDisplay:10.37,2013-04-24 16:09:00,
2013-04-24 09:14:00,57.3,51.2,29.87,East,99,0.0,0.0,80,0.00,OVC,,0.00,509.0,WeatherDisplay:10.37,2013-04-24 16:14:00,
2013-04-24 09:19:00,58.1,51.6,29.87,East,97,1.0,2.3,79,0.00,OVC,,0.00,526.0,WeatherDisplay:10.37,2013-04-24 16:19:00,
2013-04-24 09:24:00,58.6,51.1,29.87,NNE,27,2.7,3.5,76,0.00,OVC,,0.00,538.0,WeatherDisplay:10.37,2013-04-24 16:24:00,
2013-04-24 09:29:00,59.2,50.9,29.87,NNE,25,1.0,3.0,74,0.00,OVC,,0.00,558.0,WeatherDisplay:10.37,2013-04-24 16:29:00,
2013-04-24 09:34:00,59.5,50.5,29.88,NE,42,0.1,1.2,72,0.00,SCT,,0.00,570.0,WeatherDisplay:10.37,2013-04-24 16:34:00,
2013-04-24 09:39:00,60.1,50.3,29.88,NE,41,0.1,0.0,70,0.00,SCT,,0.00,584.0,WeatherDisplay:10.37,2013-04-24 16:39:00,
2013-04-24 09:44:00,60.7,50.1,29.87,ENE,64,0.9,2.3,68,0.00,SCT,,0.00,598.0,WeatherDisplay:10.37,2013-04-24 16:44:00,
2013-04-24 09:49:00,61.0,49.1,29.88,ENE,73,0.2,1.2,65,0.00,SCT,,0.00,614.0,WeatherDisplay:10.37,2013-04-24 16:49:00,
2013-04-24 09:54:00,62.0,50.1,29.87,ENE,73,0.0,1.2,65,0.00,SCT,,0.00,630.0,WeatherDisplay:10.37,2013-04-24 16:54:00,
2013-04-24 09:59:00,62.7,49.5,29.87,ENE,73,0.0,0.0,62,0.00,SCT,,0.00,637.0,WeatherDisplay:10.37,2013-04-24 16:59:00,
2013-04-24 10:04:00,63.5,49.8,29.88,ESE,117,2.3,4.6,61,0.00,CLR,,0.00,653.0,WeatherDisplay:10.37,2013-04-24 17:04:00,
2013-04-24 10:09:00,63.7,49.5,29.87,NNE,30,0.0,1.2,60,0.00,CLR,,0.00,670.0,WeatherDisplay:10.37,2013-04-24 17:09:00,
2013-04-24 10:14:00,64.0,49.4,29.87,NE,34,0.3,1.2,59,0.00,CLR,,0.00,683.0,WeatherDisplay:10.37,2013-04-24 17:14:00,
2013-04-24 10:19:00,64.7,49.6,29.88,NE,51,0.3,1.2,58,0.00,CLR,,0.00,693.0,WeatherDisplay:10.37,2013-04-24 17:19:00,
2013-04-24 10:24:00,65.0,49.9,29.87,East,90,0.7,1.2,58,0.00,CLR,,0.00,707.0,WeatherDisplay:10.37,2013-04-24 17:24:00,
2013-04-24 10:29:00,65.6,50.0,29.88,SE,131,0.0,2.3,57,0.00,CLR,,0.00,720.0,WeatherDisplay:10.37,2013-04-24 17:29:00,
2013-04-24 10:34:00,66.8,50.1,29.87,SSE,147,0.4,3.5,55,0.00,CLR,,0.00,734.0,WeatherDisplay:10.37,2013-04-24 17:34:00,
2013-04-24 10:39:00,67.9,50.6,29.87,ENE,69,1.0,1.0,54,0.00,CLR,,0.00,744.0,WeatherDisplay:10.37,2013-04-24 17:39:00,
2013-04-24 10:44:00,67.9,49.6,29.88,NE,56,1.0,2.3,52,0.00,CLR,,0.00,753.0,WeatherDisplay:10.37,2013-04-24 17:44:00,
2013-04-24 10:49:00,67.9,49.6,29.88,NW,312,0.3,3.5,52,0.00,CLR,,0.00,764.0,WeatherDisplay:10.37,2013-04-24 17:49:00,
2013-04-24 10:54:00,68.4,49.0,29.88,NE,48,1.2,3.5,50,0.00,CLR,,0.00,774.0,WeatherDisplay:10.37,2013-04-24 17:54:00,
2013-04-24 10:59:00,68.8,49.4,29.88,NE,42,0.0,2.3,50,0.00,CLR,,0.00,783.0,WeatherDisplay:10.37,2013-04-24 17:59:00,
2013-04-24 11:04:00,69.4,49.4,29.88,NNW,337,0.8,3.5,49,0.00,CLR,,0.00,792.0,WeatherDisplay:10.37,2013-04-24 18:04:00,
2013-04-24 11:09:00,69.9,49.3,29.88,North,353,1.6,4.6,48,0.00,CLR,,0.00,801.0,WeatherDisplay:10.37,2013-04-24 18:09:00,
2013-04-24 11:14:00,69.8,49.2,29.88,East,92,0.4,1.2,48,0.00,CLR,,0.00,811.0,WeatherDisplay:10.37,2013-04-24 18:14:00,
2013-04-24 11:19:00,70.3,49.7,29.88,NNW,330,2.1,3.5,48,0.00,CLR,,0.00,816.0,WeatherDisplay:10.37,2013-04-24 18:19:00,
2013-04-24 11:24:00,70.4,49.2,29.88,NE,38,2.0,5.0,47,0.00,CLR,,0.00,825.0,WeatherDisplay:10.37,2013-04-24 18:24:00,
2013-04-24 11:29:00,70.1,49.5,29.88,NE,42,0.0,2.3,48,0.00,CLR,,0.00,832.0,WeatherDisplay:10.37,2013-04-24 18:29:00,
2013-04-24 11:34:00,70.6,48.8,29.88,NNE,24,0.2,1.2,46,0.00,CLR,,0.00,839.0,WeatherDisplay:10.37,2013-04-24 18:34:00,
2013-04-24 11:39:00,71.1,49.8,29.87,NE,54,0.1,3.5,47,0.00,CLR,,0.00,850.0,WeatherDisplay:10.37,2013-04-24 18:39:00,
2013-04-24 11:44:00,71.8,49.9,29.88,North,11,1.7,4.6,46,0.00,CLR,,0.00,852.0,WeatherDisplay:10.37,2013-04-24 18:44:00,
2013-04-24 11:49:00,71.5,49.0,29.88,NNE,16,3.0,5.8,45,0.00,CLR,,0.00,860.0,WeatherDisplay:10.37,2013-04-24 18:49:00,
2013-04-24 11:54:00,71.1,49.3,29.87,NE,38,0.0,1.2,46,0.00,CLR,,0.00,867.0,WeatherDisplay:10.37,2013-04-24 18:54:00,
2013-04-24 11:59:00,71.3,48.3,29.87,North,0,2.3,4.6,44,0.00,CLR,,0.00,867.0,WeatherDisplay:10.37,2013-04-24 18:59:00,
2013-04-24 12:04:00,71.6,49.7,29.87,NNE,25,0.2,1.2,46,0.00,CLR,,0.00,876.0,WeatherDisplay:10.37,2013-04-24 19:04:00,
2013-04-24 12:09:00,72.1,50.2,29.87,North,4,1.7,3.0,46,0.00,CLR,,0.00,871.0,WeatherDisplay:10.37,2013-04-24 19:09:00,
2013-04-24 12:14:00,72.3,49.8,29.87,NNE,16,2.4,5.0,45,0.00,CLR,,0.00,882.0,WeatherDisplay:10.37,2013-04-24 19:14:00,
2013-04-24 12:19:00,72.3,50.9,29.87,NE,52,1.0,5.0,47,0.00,CLR,,0.00,885.0,WeatherDisplay:10.37,2013-04-24 19:19:00,
2013-04-24 12:24:00,72.1,50.2,29.87,North,0,1.8,2.3,46,0.00,CLR,,0.00,883.0,WeatherDisplay:10.37,2013-04-24 19:24:00,
2013-04-24 12:29:00,72.7,51.3,29.87,NNE,25,1.1,4.6,47,0.00,CLR,,0.00,882.0,WeatherDisplay:10.37,2013-04-24 19:29:00,
2013-04-24 12:34:00,73.0,51.6,29.87,NE,40,0.8,5.8,47,0.00,CLR,,0.00,889.0,WeatherDisplay:10.37,2013-04-24 19:34:00,
2013-04-24 12:39:00,73.5,52.0,29.87,WNW,301,3.3,5.8,47,0.00,CLR,,0.00,874.0,WeatherDisplay:10.37,2013-04-24 19:39:00,
2013-04-24 12:44:00,73.5,50.9,29.87,NNW,339,2.7,6.9,45,0.00,CLR,,0.00,897.0,WeatherDisplay:10.37,2013-04-24 19:44:00,
2013-04-24 12:49:00,73.2,51.8,29.87,NNE,18,2.0,5.0,47,0.00,CLR,,0.00,885.0,WeatherDisplay:10.37,2013-04-24 19:49:00,
2013-04-24 12:54:00,73.3,52.4,29.86,NW,316,1.5,5.8,48,0.00,CLR,,0.00,901.0,WeatherDisplay:10.37,2013-04-24 19:54:00,
2013-04-24 12:59:00,73.0,51.6,29.87,NNW,346,2.6,8.1,47,0.00,CLR,,0.00,910.0,WeatherDisplay:10.37,2013-04-24 19:59:00,
2013-04-24 13:04:00,73.5,52.0,29.87,NNW,329,2.9,4.6,47,0.00,CLR,,0.00,899.0,WeatherDisplay:10.37,2013-04-24 20:04:00,
2013-04-24 13:09:00,73.3,52.4,29.86,NNW,333,3.8,5.0,48,0.00,CLR,,0.00,897.0,WeatherDisplay:10.37,2013-04-24 20:09:00,
2013-04-24 13:14:00,72.8,52.0,29.87,NW,308,2.6,8.1,48,0.00,CLR,,0.00,904.0,WeatherDisplay:10.37,2013-04-24 20:14:00,
2013-04-24 13:19:00,72.3,51.5,29.87,NNW,332,3.3,6.9,48,0.00,CLR,,0.00,896.0,WeatherDisplay:10.37,2013-04-24 20:19:00,
2013-04-24 13:24:00,72.5,52.2,29.86,NNW,340,3.4,5.8,49,0.00,CLR,,0.00,894.0,WeatherDisplay:10.37,2013-04-24 20:24:00,
2013-04-24 13:29:00,72.8,52.0,29.87,NNW,336,5.2,10.4,48,0.00,CLR,,0.00,896.0,WeatherDisplay:10.37,2013-04-24 20:29:00,
2013-04-24 13:34:00,72.7,51.9,29.86,North,8,3.1,4.6,48,0.00,CLR,,0.00,892.0,WeatherDisplay:10.37,2013-04-24 20:34:00,
2013-04-24 13:39:00,72.5,51.7,29.86,NE,34,4.1,8.1,48,0.00,CLR,,0.00,883.0,WeatherDisplay:10.37,2013-04-24 20:39:00,
2013-04-24 13:44:00,72.5,52.2,29.86,NNE,13,2.9,4.6,49,0.00,CLR,,0.00,892.0,WeatherDisplay:10.37,2013-04-24 20:44:00,
2013-04-24 13:49:00,72.1,51.9,29.86,WNW,288,2.5,5.0,49,0.00,CLR,,0.00,882.0,WeatherDisplay:10.37,2013-04-24 20:49:00,
2013-04-24 13:54:00,72.5,52.8,29.86,NE,47,2.4,5.0,50,0.00,CLR,,0.00,876.0,WeatherDisplay:10.37,2013-04-24 20:54:00,
2013-04-24 13:59:00,72.1,51.3,29.86,ENE,66,0.7,6.9,48,0.00,CLR,,0.00,878.0,WeatherDisplay:10.37,2013-04-24 20:59:00,
2013-04-24 14:04:00,72.7,51.9,29.86,NNW,328,1.8,4.6,48,0.00,CLR,,0.00,873.0,WeatherDisplay:10.37,2013-04-24 21:04:00,
2013-04-24 14:09:00,72.7,51.3,29.86,NNE,32,4.4,6.9,47,0.00,CLR,,0.00,860.0,WeatherDisplay:10.37,2013-04-24 21:09:00,
2013-04-24 14:14:00,72.8,52.5,29.86,North,4,0.5,4.6,49,0.00,CLR,,0.00,860.0,WeatherDisplay:10.37,2013-04-24 21:14:00,
2013-04-24 14:19:00,73.2,51.2,29.86,NE,44,1.0,3.5,46,0.00,CLR,,0.00,850.0,WeatherDisplay:10.37,2013-04-24 21:19:00,
2013-04-24 14:24:00,73.0,51.6,29.86,NW,319,0.3,3.5,47,0.00,CLR,,0.00,846.0,WeatherDisplay:10.37,2013-04-24 21:24:00,
2013-04-24 14:29:00,73.3,51.3,29.86,NNE,25,1.6,4.0,46,0.00,CLR,,0.00,839.0,WeatherDisplay:10.37,2013-04-24 21:29:00,
2013-04-24 14:34:00,73.0,51.0,29.86,NE,41,4.1,6.9,46,0.00,CLR,,0.00,834.0,WeatherDisplay:10.37,2013-04-24 21:34:00,
2013-04-24 14:39:00,73.2,51.8,29.86,NNW,347,0.0,3.5,47,0.00,CLR,,0.00,827.0,WeatherDisplay:10.37,2013-04-24 21:39:00,
2013-04-24 14:44:00,73.0,51.0,29.85,NNE,32,1.8,4.6,46,0.00,CLR,,0.00,815.0,WeatherDisplay:10.37,2013-04-24 21:44:00,
2013-04-24 14:49:00,73.2,51.8,29.85,WNW,299,1.6,3.0,47,0.00,CLR,,0.00,809.0,WeatherDisplay:10.37,2013-04-24 21:49:00,
2013-04-24 14:54:00,73.0,51.6,29.85,NNE,21,2.9,6.9,47,0.00,CLR,,0.00,799.0,WeatherDisplay:10.37,2013-04-24 21:54:00,
2013-04-24 14:59:00,73.3,51.3,29.85,NNW,333,2.6,6.0,46,0.00,CLR,,0.00,794.0,WeatherDisplay:10.37,2013-04-24 21:59:00,
2013-04-24 15:04:00,73.5,51.4,29.85,NNE,21,4.3,6.9,46,0.00,CLR,,0.00,779.0,WeatherDisplay:10.37,2013-04-24 22:04:00,
2013-04-24 15:09:00,73.2,51.8,29.85,NW,309,3.9,6.9,47,0.00,CLR,,0.00,774.0,WeatherDisplay:10.37,2013-04-24 22:09:00,
2013-04-24 15:14:00,72.8,51.4,29.85,NNW,336,1.9,4.6,47,0.00,CLR,,0.00,760.0,WeatherDisplay:10.37,2013-04-24 22:14:00,
2013-04-24 15:19:00,73.5,52.0,29.85,NW,318,5.3,8.1,47,0.00,CLR,,0.00,753.0,WeatherDisplay:10.37,2013-04-24 22:19:00,
2013-04-24 15:24:00,74.4,52.9,29.85,North,349,0.0,2.3,47,0.00,CLR,,0.00,744.0,WeatherDisplay:10.37,2013-04-24 22:24:00,
2013-04-24 15:29:00,74.7,51.9,29.85,ENE,59,1.6,6.9,45,0.00,CLR,,0.00,732.0,WeatherDisplay:10.37,2013-04-24 22:29:00,
2013-04-24 15:34:00,74.9,52.1,29.85,East,90,1.1,3.5,45,0.00,CLR,,0.00,720.0,WeatherDisplay:10.37,2013-04-24 22:34:00,
2013-04-24 15:39:00,74.7,51.3,29.84,North,3,3.1,8.1,44,0.00,CLR,,0.00,714.0,WeatherDisplay:10.37,2013-04-24 22:39:00,
2013-04-24 15:44:00,74.2,52.1,29.84,NNE,21,3.9,5.8,46,0.00,CLR,,0.00,697.0,WeatherDisplay:10.37,2013-04-24 22:44:00,
2013-04-24 15:49:00,73.9,52.4,29.84,NNW,347,3.2,5.8,47,0.00,CLR,,0.00,688.0,WeatherDisplay:10.37,2013-04-24 22:49:00,
2013-04-24 15:54:00,73.7,52.8,29.84,North,0,0.9,5.8,48,0.00,CLR,,0.00,674.0,WeatherDisplay:10.37,2013-04-24 22:54:00,
2013-04-24 15:59:00,73.7,52.8,29.84,NNE,32,3.3,3.5,48,0.00,CLR,,0.00,662.0,WeatherDisplay:10.37,2013-04-24 22:59:00,
2013-04-24 16:04:00,73.0,52.1,29.84,North,0,1.2,5.0,48,0.00,CLR,,0.00,649.0,WeatherDisplay:10.37,2013-04-24 23:04:00,
2013-04-24 16:09:00,72.7,52.4,29.84,NNW,336,3.6,6.9,49,0.00,CLR,,0.00,635.0,WeatherDisplay:10.37,2013-04-24 23:09:00,
2013-04-24 16:14:00,72.8,52.5,29.84,NNE,30,1.8,4.6,49,0.00,CLR,,0.00,625.0,WeatherDisplay:10.37,2013-04-24 23:14:00,
2013-04-24 16:19:00,72.5,52.2,29.84,NW,312,1.4,4.6,49,0.00,CLR,,0.00,604.0,WeatherDisplay:10.37,2013-04-24 23:19:00,
2013-04-24 16:24:00,72.7,53.0,29.84,North,356,2.2,6.0,50,0.00,CLR,,0.00,593.0,WeatherDisplay:10.37,2013-04-24 23:24:00,
2013-04-24 16:29:00,72.1,52.4,29.84,NE,55,1.2,3.5,50,0.00,CLR,,0.00,579.0,WeatherDisplay:10.37,2013-04-24 23:29:00,
2013-04-24 16:34:00,71.6,52.5,29.84,NNE,13,1.5,5.0,51,0.00,CLR,,0.00,563.0,WeatherDisplay:10.37,2013-04-24 23:34:00,
2013-04-24 16:39:00,71.3,52.8,29.84,North,359,1.6,6.9,52,0.00,CLR,,0.00,552.0,WeatherDisplay:10.37,2013-04-24 23:39:00,
2013-04-24 16:44:00,70.9,52.4,29.84,NNW,328,4.1,6.9,52,0.00,CLR,,0.00,535.0,WeatherDisplay:10.37,2013-04-24 23:44:00,
2013-04-24 16:49:00,70.9,52.4,29.85,NW,306,4.6,7.0,52,0.00,CLR,,0.00,519.0,WeatherDisplay:10.37,2013-04-24 23:49:00,
2013-04-24 16:54:00,70.9,52.4,29.85,East,97,4.1,4.1,52,0.00,CLR,,0.00,505.0,WeatherDisplay:10.37,2013-04-24 23:54:00,
2013-04-24 16:59:00,70.8,52.8,29.85,NNW,344,0.3,4.6,53,0.00,CLR,,0.00,493.0,WeatherDisplay:10.37,2013-04-24 23:59:00,
2013-04-24 17:04:00,70.8,52.3,29.85,NE,54,1.4,3.5,52,0.00,CLR,,0.00,477.0,WeatherDisplay:10.37,2013-04-25 00:04:00,
2013-04-24 17:09:00,70.4,52.4,29.85,NW,326,2.2,3.5,53,0.00,CLR,,0.00,461.0,WeatherDisplay:10.37,2013-04-25 00:09:00,
2013-04-24 17:14:00,70.3,52.4,29.85,NNE,32,1.1,3.5,53,0.00,CLR,,0.00,443.0,WeatherDisplay:10.37,2013-04-25 00:14:00,
2013-04-24 17:19:00,70.3,52.4,29.85,NNW,346,0.5,3.5,53,0.00,CLR,,0.00,428.0,WeatherDisplay:10.37,2013-04-25 00:19:00,
2013-04-24 17:24:00,70.1,52.7,29.85,North,0,3.0,4.6,54,0.00,CLR,,0.00,412.0,WeatherDisplay:10.37,2013-04-25 00:24:00,
2013-04-24 17:29:00,69.9,52.5,29.85,NNW,346,1.1,5.8,54,0.00,CLR,,0.00,396.0,WeatherDisplay:10.37,2013-04-25 00:29:00,
2013-04-24 17:34:00,69.6,52.2,29.85,North,4,2.6,5.8,54,0.00,CLR,,0.00,378.0,WeatherDisplay:10.37,2013-04-25 00:34:00,
2013-04-24 17:39:00,69.8,52.9,29.85,NNE,13,1.1,1.2,55,0.00,CLR,,0.00,364.0,WeatherDisplay:10.37,2013-04-25 00:39:00,
2013-04-24 17:44:00,69.6,52.2,29.86,North,10,0.5,4.6,54,0.00,CLR,,0.00,348.0,WeatherDisplay:10.37,2013-04-25 00:44:00,
2013-04-24 17:49:00,69.4,52.5,29.86,NNE,18,1.3,3.5,55,0.00,CLR,,0.00,329.0,WeatherDisplay:10.37,2013-04-25 00:49:00,
2013-04-24 17:54:00,69.1,52.7,29.86,NNE,27,1.2,2.3,56,0.00,CLR,,0.00,313.0,WeatherDisplay:10.37,2013-04-25 00:54:00,
2013-04-24 17:59:00,69.1,52.7,29.86,North,0,1.0,5.8,56,0.00,CLR,,0.00,297.0,WeatherDisplay:10.37,2013-04-25 00:59:00,
2013-04-24 18:04:00,68.9,52.6,29.86,NNW,342,0.3,5.0,56,0.00,CLR,,0.00,280.0,WeatherDisplay:10.37,2013-04-25 01:04:00,
2013-04-24 18:09:00,68.6,52.8,29.86,NNE,25,2.6,3.0,57,0.00,CLR,,0.00,264.0,WeatherDisplay:10.37,2013-04-25 01:09:00,
2013-04-24 18:14:00,68.3,52.9,29.86,NNW,344,0.8,3.5,58,0.00,CLR,,0.00,248.0,WeatherDisplay:10.37,2013-04-25 01:14:00,
2013-04-24 18:19:00,67.9,52.6,29.86,North,11,1.7,7.0,58,0.00,CLR,,0.00,232.0,WeatherDisplay:10.37,2013-04-25 01:19:00,
2013-04-24 18:24:00,67.4,52.6,29.86,North,0,1.8,5.8,59,0.00,CLR,,0.00,216.0,WeatherDisplay:10.37,2013-04-25 01:24:00,
2013-04-24 18:29:00,67.1,52.7,29.87,North,0,0.4,3.5,60,0.00,CLR,,0.00,160.0,WeatherDisplay:10.37,2013-04-25 01:29:00,
2013-04-24 18:34:00,66.8,52.5,29.87,NNE,24,0.5,3.0,60,0.00,CLR,,0.00,183.0,WeatherDisplay:10.37,2013-04-25 01:34:00,
2013-04-24 18:39:00,66.4,52.5,29.87,NW,323,0.9,3.5,61,0.00,CLR,,0.00,167.0,WeatherDisplay:10.37,2013-04-25 01:39:00,
2013-04-24 18:44:00,65.8,52.0,29.87,NE,34,2.9,5.0,61,0.00,CLR,,0.00,153.0,WeatherDisplay:10.37,2013-04-25 01:44:00,
2013-04-24 18:49:00,65.5,52.1,29.87,NE,41,1.8,3.5,62,0.00,CLR,,0.00,139.0,WeatherDisplay:10.37,2013-04-25 01:49:00,
2013-04-24 18:54:00,65.2,52.3,29.87,NNE,23,1.0,3.0,63,0.00,CLR,,0.00,116.0,WeatherDisplay:10.37,2013-04-25 01:54:00,
2013-04-24 18:59:00,64.8,51.9,29.87,NNE,14,0.3,2.3,63,0.00,CLR,,0.00,90.0,WeatherDisplay:10.37,2013-04-25 01:59:00,
2013-04-24 19:04:00,64.7,52.2,29.87,NW,313,0.6,5.8,64,0.00,CLR,,0.00,62.0,WeatherDisplay:10.37,2013-04-25 02:04:00,
2013-04-24 19:09:00,64.3,51.9,29.87,NNW,344,0.3,2.3,64,0.00,CLR,,0.00,48.0,WeatherDisplay:10.37,2013-04-25 02:09:00,
2013-04-24 19:14:00,64.0,51.6,29.87,NW,325,0.0,2.3,64,0.00,CLR,,0.00,42.0,WeatherDisplay:10.37,2013-04-25 02:14:00,
2013-04-24 19:19:00,63.9,51.9,29.87,North,0,0.1,1.2,65,0.00,CLR,,0.00,42.0,WeatherDisplay:10.37,2013-04-25 02:19:00,
2013-04-24 19:24:00,63.7,51.7,29.87,North,350,0.0,1.2,65,0.00,CLR,,0.00,44.0,WeatherDisplay:10.37,2013-04-25 02:24:00,
2013-04-24 19:29:00,63.4,51.4,29.88,NW,322,2.3,3.5,65,0.00,CLR,,0.00,23.0,WeatherDisplay:10.37,2013-04-25 02:29:00,
2013-04-24 19:34:00,63.1,51.6,29.88,NNW,344,1.5,2.0,66,0.00,CLR,,0.00,18.0,WeatherDisplay:10.37,2013-04-25 02:34:00,
2013-04-24 19:39:00,62.7,51.2,29.88,NNW,344,1.3,3.5,66,0.00,CLR,,0.00,14.0,WeatherDisplay:10.37,2013-04-25 02:39:00,
2013-04-24 19:44:00,62.4,50.9,29.88,NNW,346,0.0,1.2,66,0.00,CLR,,0.00,9.0,WeatherDisplay:10.37,2013-04-25 02:44:00,
2013-04-24 19:49:00,62.3,51.2,29.88,NNW,346,0.0,1.2,67,0.00,CLR,,0.00,5.0,WeatherDisplay:10.37,2013-04-25 02:49:00,
2013-04-24 19:54:00,62.0,50.9,29.88,NNW,339,1.1,4.6,67,0.00,CLR,,0.00,0.0,WeatherDisplay:10.37,2013-04-25 02:54:00,
2013-04-24 19:59:00,61.6,50.9,29.89,NNW,337,0.3,2.3,68,0.00,CLR,,0.00,0.0,WeatherDisplay:10.37,2013-04-25 02:59:00,
2013-04-24 20:04:00,61.3,50.6,29.89,NNW,337,0.1,0.0,68,0.00,CLR,,0.00,0.0,WeatherDisplay:10.37,2013-04-25 03:04:00,
2013-04-24 20:09:00,61.0,50.4,29.89,NNW,339,0.9,3.5,68,0.00,CLR,,0.00,0.0,WeatherDisplay:10.37,2013-04-25 03:09:00,
2013-04-24 20:14:00,60.7,50.5,29.89,North,352,0.2,1.2,69,0.00,CLR,,0.00,0.0,WeatherDisplay:10.37,2013-04-25 03:14:00,
2013-04-24 20:19:00,60.5,50.3,29.89,North,352,0.6,2.0,69,0.00,CLR,,0.00,0.0,WeatherDisplay:10.37,2013-04-25 03:19:00,
2013-04-24 20:24:00,60.2,50.4,29.89,North,356,0.7,3.5,70,0.00,CLR,,0.00,0.0,WeatherDisplay:10.37,2013-04-25 03:24:00,
2013-04-24 20:29:00,59.9,50.1,29.90,North,8,0.3,2.3,70,0.00,CLR,,0.00,0.0,WeatherDisplay:10.37,2013-04-25 03:29:00,
2013-04-24 20:34:00,59.6,50.2,29.90,NNE,28,1.8,2.3,71,0.00,CLR,,0.00,0.0,WeatherDisplay:10.37,2013-04-25 03:34:00,
2013-04-24 20:39:00,59.3,49.9,29.90,North,6,0.6,4.6,71,0.00,CLR,,0.00,0.0,WeatherDisplay:10.37,2013-04-25 03:39:00,
2013-04-24 20:44:00,59.2,49.8,29.91,NNW,336,1.9,3.5,71,0.00,CLR,,0.00,0.0,WeatherDisplay:10.37,2013-04-25 03:44:00,
2013-04-24 20:49:00,59.0,50.0,29.91,NNW,333,0.1,3.5,72,0.00,CLR,,0.00,0.0,WeatherDisplay:10.37,2013-04-25 03:49:00,
2013-04-24 20:54:00,58.7,49.7,29.91,NNW,333,0.0,0.0,72,0.00,CLR,,0.00,0.0,WeatherDisplay:10.37,2013-04-25 03:54:00,
2013-04-24 20:59:00,58.6,50.0,29.92,NNW,333,0.1,1.2,73,0.00,CLR,,0.00,0.0,WeatherDisplay:10.37,2013-04-25 03:59:00,
2013-04-24 21:01:00,58.6,50.0,29.91,NNW,336,0.3,2.3,73,0.00,CLR,,0.00,0.0,WeatherDisplay:10.37,2013-04-25 04:01:00,
2013-04-24 21:02:00,58.4,49.8,29.91,NNW,344,0.9,2.3,73,0.00,CLR,,0.00,0.0,WeatherDisplay:10.37,2013-04-25 04:02:00,
2013-04-24 21:07:00,58.3,49.7,29.92,NNW,344,0.1,1.2,73,0.00,CLR,,0.00,0.0,WeatherDisplay:10.37,2013-04-25 04:07:00,
2013-04-24 21:12:00,58.1,49.9,29.92,NNW,344,0.0,0.0,74,0.00,CLR,,0.00,0.0,WeatherDisplay:10.37,2013-04-25 04:12:00,
2013-04-24 21:17:00,58.0,49.8,29.92,NNW,344,0.0,0.0,74,0.00,CLR,,0.00,0.0,WeatherDisplay:10.37,2013-04-25 04:17:00,
2013-04-24 21:22:00,57.8,49.6,29.92,NNW,344,0.0,0.0,74,0.00,CLR,,0.00,0.0,WeatherDisplay:10.37,2013-04-25 04:22:00,
2013-04-24 21:27:00,57.6,49.7,29.93,NNW,344,0.0,0.0,75,0.00,CLR,,0.00,0.0,WeatherDisplay:10.37,2013-04-25 04:27:00,
2013-04-24 21:32:00,57.5,49.6,29.93,NNW,344,0.5,2.3,75,0.00,CLR,,0.00,0.0,WeatherDisplay:10.37,2013-04-25 04:32:00,
2013-04-24 21:37:00,57.3,49.4,29.93,NNW,344,0.4,2.3,75,0.00,CLR,,0.00,0.0,WeatherDisplay:10.37,2013-04-25 04:37:00,
2013-04-24 21:42:00,57.2,49.7,29.93,NNW,344,0.0,0.0,76,0.00,CLR,,0.00,0.0,WeatherDisplay:10.37,2013-04-25 04:42:00,
2013-04-24 21:47:00,57.0,49.5,29.94,NNW,344,0.0,0.0,76,0.00,CLR,,0.00,0.0,WeatherDisplay:10.37,2013-04-25 04:47:00,
2013-04-24 21:52:00,56.9,49.8,29.94,NNW,344,0.0,0.0,77,0.00,CLR,,0.00,0.0,WeatherDisplay:10.37,2013-04-25 04:52:00,
2013-04-24 21:57:00,56.7,49.6,29.94,NNW,344,0.0,0.0,77,0.00,CLR,,0.00,0.0,WeatherDisplay:10.37,2013-04-25 04:57:00,
2013-04-24 22:02:00,56.6,49.5,29.94,NNW,344,0.0,0.0,77,0.00,CLR,,0.00,0.0,WeatherDisplay:10.37,2013-04-25 05:02:00,
2013-04-24 22:07:00,56.6,49.8,29.94,NNW,344,0.0,0.0,78,0.00,CLR,,0.00,0.0,WeatherDisplay:10.37,2013-04-25 05:07:00,
2013-04-24 22:12:00,56.5,49.7,29.94,NNW,344,0.0,0.0,78,0.00,CLR,,0.00,0.0,WeatherDisplay:10.37,2013-04-25 05:12:00,
2013-04-24 22:17:00,56.3,49.5,29.94,NNW,346,0.1,2.3,78,0.00,CLR,,0.00,0.0,WeatherDisplay:10.37,2013-04-25 05:17:00,
2013-04-24 22:22:00,56.3,49.9,29.95,North,349,0.0,1.0,79,0.00,CLR,,0.00,0.0,WeatherDisplay:10.37,2013-04-25 05:22:00,
2013-04-24 22:27:00,56.2,49.8,29.94,North,349,0.0,0.0,79,0.00,CLR,,0.00,0.0,WeatherDisplay:10.37,2013-04-25 05:27:00,
2013-04-24 22:32:00,56.0,49.6,29.95,North,349,0.0,0.0,79,0.00,CLR,,0.00,0.0,WeatherDisplay:10.37,2013-04-25 05:32:00,
2013-04-24 22:37:00,56.0,49.9,29.95,North,349,0.0,0.0,80,0.00,CLR,,0.00,0.0,WeatherDisplay:10.37,2013-04-25 05:37:00,
2013-04-24 22:42:00,55.9,49.8,29.95,North,349,0.0,0.0,80,0.00,CLR,,0.00,0.0,WeatherDisplay:10.37,2013-04-25 05:42:00,
2013-04-24 22:47:00,55.7,49.6,29.95,North,349,0.0,0.0,80,0.00,CLR,,0.00,0.0,WeatherDisplay:10.37,2013-04-25 05:47:00,
2013-04-24 22:52:00,55.6,49.5,29.95,North,349,0.0,0.0,80,0.00,CLR,,0.00,0.0,WeatherDisplay:10.37,2013-04-25 05:52:00,
2013-04-24 22:57:00,55.6,49.5,29.95,North,349,0.0,0.0,80,0.00,CLR,,0.00,0.0,WeatherDisplay:10.37,2013-04-25 05:57:00,
2013-04-24 23:02:00,55.4,49.3,29.95,North,349,0.0,0.0,80,0.00,CLR,,0.00,0.0,WeatherDisplay:10.37,2013-04-25 06:02:00,
2013-04-24 23:07:00,55.3,49.2,29.95,North,349,0.0,0.0,80,0.00,CLR,,0.00,0.0,WeatherDisplay:10.37,2013-04-25 06:07:00,
2013-04-24 23:12:00,55.1,49.0,29.95,North,349,0.0,0.0,80,0.00,CLR,,0.00,0.0,WeatherDisplay:10.37,2013-04-25 06:12:00,
2013-04-24 23:17:00,55.0,48.9,29.95,North,349,0.0,0.0,80,0.00,CLR,,0.00,0.0,WeatherDisplay:10.37,2013-04-25 06:17:00,
2013-04-24 23:22:00,54.7,48.6,29.95,North,349,0.0,0.0,80,0.00,CLR,,0.00,0.0,WeatherDisplay:10.37,2013-04-25 06:22:00,
2013-04-24 23:27:00,54.5,48.5,29.95,North,349,0.0,0.0,80,0.00,CLR,,0.00,0.0,WeatherDisplay:10.37,2013-04-25 06:27:00,
2013-04-24 23:32:00,54.2,48.5,29.95,North,349,0.0,0.0,81,0.00,CLR,,0.00,0.0,WeatherDisplay:10.37,2013-04-25 06:32:00,
2013-04-24 23:37:00,54.1,48.4,29.95,North,349,0.0,0.0,81,0.00,CLR,,0.00,0.0,WeatherDisplay:10.37,2013-04-25 06:37:00,
2013-04-24 23:42:00,53.9,48.2,29.95,North,349,0.0,0.0,81,0.00,CLR,,0.00,0.0,WeatherDisplay:10.37,2013-04-25 06:42:00,
2013-04-24 23:47:00,53.8,48.1,29.95,North,349,0.0,0.0,81,0.00,CLR,,0.00,0.0,WeatherDisplay:10.37,2013-04-25 06:47:00,
2013-04-24 23:52:00,53.6,47.9,29.96,North,349,0.0,0.0,81,0.00,CLR,,0.00,0.0,WeatherDisplay:10.37,2013-04-25 06:52:00,
2013-04-24 23:57:00,53.5,47.8,29.96,North,349,0.0,0.0,81,0.00,CLR,,0.00,0.0,WeatherDisplay:10.37,2013-04-25 06:57:00,